• In Hungary
  • List of Countries
  • For 7 days
  • Water Temperature
  • Satellite Maps
  • Weather Map
  • News
  • Weather Widgets
  • user-avatar
    Login

    Hourly Weather Maciejow

    Today, 18 July, Wednesday

    Time Temperature Precipitation Wind Pressure Humidity
    00:00 +18°C° 0 mm 2 mps 737 mmHg 97%
    01:00 +18°C° 0 mm 2 mps 737 mmHg 97%
    02:00 +18°C° 0 mm 2 mps 737 mmHg 97%
    03:00 +18°C° 0 mm 2 mps 737 mmHg 98%
    04:00 +18°C° 0 mm 2 mps 737 mmHg 98%
    05:00 +19°C° 0.1 mm 2 mps 737 mmHg 96%
    06:00 +19°C° 0.1 mm 3 mps 737 mmHg 94%
    07:00 +20°C° 0.1 mm 3 mps 738 mmHg 93%
    08:00 +21°C° 0.1 mm 3 mps 738 mmHg 91%
    09:00 +22°C° 0.1 mm 3 mps 738 mmHg 88%
    10:00 +22°C° 0.1 mm 3 mps 738 mmHg 86%
    11:00 +25°C° 0.5 mm 3 mps 738 mmHg 82%
    12:00 +26°C° 0.5 mm 3 mps 738 mmHg 77%
    13:00 +27°C° 0.5 mm 4 mps 738 mmHg 73%
    14:00 +27°C° 0.9 mm 4 mps 739 mmHg 73%
    15:00 +27°C° 0.9 mm 5 mps 739 mmHg 73%
    16:00 +27°C° 0.9 mm 6 mps 739 mmHg 74%
    17:00 +26°C° 0.6 mm 5 mps 739 mmHg 78%
    18:00 +25°C° 0.6 mm 5 mps 740 mmHg 82%
    19:00 +23°C° 0.6 mm 5 mps 740 mmHg 87%
    20:00 +22°C° 0.4 mm 5 mps 740 mmHg 90%
    21:00 +21°C° 0.4 mm 5 mps 740 mmHg 92%
    22:00 +21°C° 0.4 mm 5 mps 741 mmHg 95%
    23:00 +20°C° 0.6 mm 5 mps 741 mmHg 95%

    Tomorrow, 19 July, Thursday

    Time Temperature Precipitation Wind Pressure Humidity
    00:00 +20°C° 0.6 mm 5 mps 741 mmHg 96%
    01:00 +20°C° 0.6 mm 5 mps 741 mmHg 96%
    02:00 +20°C° 0.5 mm 5 mps 741 mmHg 96%
    03:00 +20°C° 0.5 mm 5 mps 741 mmHg 96%
    04:00 +19°C° 0.5 mm 4 mps 741 mmHg 96%
    05:00 +20°C° 0.4 mm 4 mps 741 mmHg 95%
    06:00 +20°C° 0.4 mm 4 mps 741 mmHg 94%
    07:00 +20°C° 0.4 mm 4 mps 742 mmHg 94%
    08:00 +20°C° 0.2 mm 4 mps 742 mmHg 92%
    09:00 +21°C° 0.2 mm 4 mps 742 mmHg 90%
    10:00 +21°C° 0.2 mm 4 mps 742 mmHg 88%
    11:00 +22°C° 0.3 mm 4 mps 742 mmHg 84%
    12:00 +23°C° 0.3 mm 4 mps 742 mmHg 79%
    13:00 +25°C° 0.3 mm 5 mps 742 mmHg 75%
    14:00 +25°C° 0.3 mm 5 mps 742 mmHg 74%
    15:00 +25°C° 0.3 mm 5 mps 742 mmHg 74%
    16:00 +25°C° 0.3 mm 5 mps 742 mmHg 73%
    17:00 +23°C° 0.1 mm 5 mps 742 mmHg 77%
    18:00 +22°C° 0.1 mm 4 mps 742 mmHg 81%
    19:00 +21°C° 0.1 mm 4 mps 742 mmHg 84%
    20:00 +21°C° 0 mm 4 mps 743 mmHg 86%
    21:00 +20°C° 0 mm 4 mps 743 mmHg 87%
    22:00 +20°C° 0 mm 4 mps 743 mmHg 88%
    23:00 +20°C° 0 mm 4 mps 743 mmHg 89%

    Day after tomorrow, 20 July, Friday

    Time Temperature Precipitation Wind Pressure Humidity
    00:00 +19°C° 0 mm 4 mps 743 mmHg 91%
    01:00 +19°C° 0 mm 4 mps 743 mmHg 92%
    02:00 +18°C° 0 mm 4 mps 743 mmHg 94%
    03:00 +18°C° 0 mm 4 mps 743 mmHg 95%
    04:00 +17°C° 0 mm 4 mps 743 mmHg 96%
    05:00 +18°C° 0 mm 4 mps 743 mmHg 94%
    06:00 +19°C° 0 mm 4 mps 743 mmHg 91%
    07:00 +19°C° 0 mm 4 mps 743 mmHg 88%
    08:00 +21°C° 0.2 mm 4 mps 743 mmHg 82%
    09:00 +22°C° 0.2 mm 4 mps 743 mmHg 77%
    10:00 +25°C° 0.2 mm 4 mps 743 mmHg 71%
    11:00 +26°C° 0.6 mm 4 mps 743 mmHg 67%
    12:00 +26°C° 0.6 mm 5 mps 743 mmHg 64%
    13:00 +27°C° 0.6 mm 5 mps 743 mmHg 60%
    14:00 +27°C° 0.2 mm 5 mps 742 mmHg 61%
    15:00 +27°C° 0.2 mm 5 mps 742 mmHg 62%
    16:00 +27°C° 0.2 mm 5 mps 742 mmHg 63%
    17:00 +26°C° 0.1 mm 4 mps 742 mmHg 68%
    18:00 +23°C° 0.1 mm 4 mps 742 mmHg 73%
    19:00 +22°C° 0.1 mm 3 mps 742 mmHg 78%
    20:00 +21°C° 0 mm 3 mps 742 mmHg 81%
    21:00 +20°C° 0 mm 3 mps 742 mmHg 85%
    22:00 +19°C° 0 mm 2 mps 743 mmHg 88%
    23:00 +19°C° 0 mm 2 mps 743 mmHg 90%

    21 July, Saturday

    Time Temperature Precipitation Wind Pressure Humidity
    00:00 +18°C° 0 mm 2 mps 743 mmHg 91%
    01:00 +18°C° 0 mm 2 mps 742 mmHg 93%
    02:00 +17°C° 0 mm 2 mps 742 mmHg 94%
    03:00 +17°C° 0 mm 2 mps 742 mmHg 94%
    04:00 +16°C° 0 mm 1 mps 742 mmHg 95%
    05:00 +19°C° 0 mm 1 mps 742 mmHg 90%
    06:00 +20°C° 0 mm 1 mps 742 mmHg 85%
    07:00 +20°C° 0 mm 2 mps 742 mmHg 80%
    08:00 +21°C° 0 mm 2 mps 742 mmHg 73%
    09:00 +23°C° 0 mm 2 mps 742 mmHg 66%
    10:00 +25°C° 0 mm 2 mps 742 mmHg 59%
    11:00 +25°C° 0 mm 2 mps 742 mmHg 56%
    12:00 +26°C° 0 mm 3 mps 742 mmHg 53%
    13:00 +26°C° 0 mm 3 mps 742 mmHg 50%
    14:00 +26°C° 0 mm 3 mps 741 mmHg 49%
    15:00 +26°C° 0 mm 3 mps 741 mmHg 49%
    16:00 +26°C° 0 mm 3 mps 741 mmHg 48%
    17:00 +25°C° 0 mm 2 mps 741 mmHg 53%
    18:00 +24°C° 0 mm 2 mps 741 mmHg 58%
    19:00 +21°C° 0 mm 2 mps 741 mmHg 63%
    20:00 +20°C° 0 mm 2 mps 741 mmHg 64%
    21:00 +20°C° 0 mm 1 mps 741 mmHg 64%
    22:00 +19°C° 0 mm 1 mps 741 mmHg 65%
    23:00 +19°C° 0 mm 1 mps 741 mmHg 66%

    22 July, Sunday

    Time Temperature Precipitation Wind Pressure Humidity
    00:00 +18°C° 0 mm 1 mps 741 mmHg 67%
    01:00 +18°C° 0 mm 1 mps 741 mmHg 69%
    02:00 +18°C° 0 mm 1 mps 741 mmHg 71%
    03:00 +16°C° 0 mm 1 mps 741 mmHg 73%
    04:00 +16°C° 0 mm 1 mps 741 mmHg 75%
    05:00 +18°C° 0 mm 1 mps 741 mmHg 73%
    06:00 +20°C° 0 mm 1 mps 741 mmHg 71%
    07:00 +21°C° 0 mm 1 mps 742 mmHg 68%
    08:00 +21°C° 0 mm 2 mps 742 mmHg 65%
    09:00 +24°C° 0 mm 2 mps 742 mmHg 61%
    10:00 +25°C° 0 mm 2 mps 742 mmHg 57%
    11:00 +26°C° 0 mm 2 mps 741 mmHg 55%
    12:00 +26°C° 0 mm 2 mps 741 mmHg 53%
    13:00 +27°C° 0 mm 3 mps 741 mmHg 50%
    14:00 +27°C° 0 mm 3 mps 741 mmHg 52%
    15:00 +27°C° 0 mm 3 mps 741 mmHg 53%
    16:00 +27°C° 0 mm 3 mps 741 mmHg 55%
    17:00 +26°C° 0 mm 3 mps 741 mmHg 60%
    18:00 +24°C° 0 mm 3 mps 741 mmHg 65%
    19:00 +23°C° 0 mm 2 mps 742 mmHg 70%
    20:00 +21°C° 0 mm 2 mps 742 mmHg 71%
    21:00 +20°C° 0 mm 2 mps 742 mmHg 72%
    22:00 +20°C° 0 mm 2 mps 742 mmHg 73%
    23:00 +19°C° 0 mm 2 mps 743 mmHg 76%

    23 July, Monday

    Time Temperature Precipitation Wind Pressure Humidity
    00:00 +18°C° 0 mm 3 mps 743 mmHg 79%
    01:00 +17°C° 0 mm 3 mps 743 mmHg 81%
    02:00 +17°C° 0 mm 2 mps 743 mmHg 83%
    03:00 +16°C° 0 mm 2 mps 743 mmHg 85%
    04:00 +16°C° 0 mm 2 mps 743 mmHg 86%
    05:00 +17°C° 0 mm 3 mps 744 mmHg 82%
    06:00 +18°C° 0 mm 3 mps 744 mmHg 79%
    07:00 +19°C° 0 mm 3 mps 744 mmHg 75%
    08:00 +21°C° 0 mm 4 mps 744 mmHg 69%
    09:00 +22°C° 0 mm 4 mps 744 mmHg 64%
    10:00 +23°C° 0 mm 4 mps 744 mmHg 59%
    11:00 +25°C° 0 mm 4 mps 744 mmHg 57%
    12:00 +25°C° 0 mm 5 mps 744 mmHg 55%
    13:00 +26°C° 0 mm 5 mps 744 mmHg 53%
    14:00 +26°C° 0 mm 5 mps 744 mmHg 53%
    15:00 +26°C° 0 mm 5 mps 744 mmHg 54%
    16:00 +26°C° 0 mm 5 mps 744 mmHg 54%
    17:00 +25°C° 0 mm 4 mps 744 mmHg 60%
    18:00 +22°C° 0 mm 3 mps 744 mmHg 65%
    19:00 +21°C° 0 mm 3 mps 744 mmHg 70%
    20:00 +20°C° 0 mm 2 mps 744 mmHg 73%
    21:00 +19°C° 0 mm 2 mps 744 mmHg 76%
    22:00 +18°C° 0 mm 2 mps 745 mmHg 79%
    23:00 +17°C° 0 mm 2 mps 745 mmHg 82%
    Show more